Retour au catalogue

SL-12 DEB

LostHEO
NORAD 41682·DEBRIS·🇷🇺 Russia

Lancé Oct 26, 2007 depuis Baikonur Cosmodrome

Loading…

Prochains Passages (prochaines 24 heures)

TLE

PériméSource: Space-Track

Époque: Feb 11, 2018, 23:57 UTC

1 41682U 07052P   18042.99808065 -.00022716 +00000-0 -10711+0 0  9994
2 41682 065.2632 329.3644 5698839 008.4633 357.2628 04.20895337053372

Suivez SL-12 DEB en temps réel avec AllMySat

Download on the App Store